Location: Baili�vre
(50.0696°N, 4.2409°E)
Time: 06:33:03
(UTC+00:00)

Cosmos 1980 Rocket - Pass Details

Date: 08 August 2020
Orbit: 829 x 849 km, 71.0° (Epoch: 23 September)

Event Time Altitude Azimuth Distance (km) Brightness Sun altitude
Rises 20:35:00 0° 331° (NNW) 3,423 6.9 -11.6°
Reaches altitude 10° 20:37:28 10° 333° (NNW) 2,482 5.9 -11.9°
Maximum altitude 20:43:11 78° 60° (ENE) 869 2.2 -12.5°
Enters shadow 20:47:29 18° 145° (SE) 1,959 3.5 -13.0°
